Time,TemperatureF,DewpointF,PressureIn,WindDirection,WindDirectionDegrees,WindSpeedMPH,WindSpeedGustMPH,Humidity,HourlyPrecipIn,Conditions,Clouds,dailyrainin,SoftwareType,DateUTC
2013-03-14 00:00:00,61.7,51.0,30.17,North,355,11.0,11.0,68,0.00,,,0.00,Wunderground v.1.15,2013-03-14 04:00:00,
2013-03-14 00:02:00,61.7,51.0,30.17,NW,321,10.0,11.0,68,0.00,,,0.00,Wunderground v.1.15,2013-03-14 04:02:00,
2013-03-14 00:08:00,61.7,50.6,30.17,NNW,328,9.0,11.0,67,0.00,,,0.00,Wunderground v.1.15,2013-03-14 04:08:00,
2013-03-14 00:12:00,61.7,50.6,30.17,NNW,345,9.0,14.0,67,0.00,,,0.00,Wunderground v.1.15,2013-03-14 04:12:00,
2013-03-14 00:18:00,61.6,50.9,30.17,NNW,347,9.0,14.0,68,0.00,,,0.00,Wunderground v.1.15,2013-03-14 04:18:00,
2013-03-14 00:24:00,61.6,50.9,30.17,NNW,343,9.0,9.0,68,0.00,,,0.00,Wunderground v.1.15,2013-03-14 04:24:00,
2013-03-14 00:30:00,61.7,50.6,30.17,NNW,342,11.0,11.0,67,0.00,,,0.00,Wunderground v.1.15,2013-03-14 04:30:00,
2013-03-14 00:38:00,61.6,50.5,30.17,NNW,328,10.0,18.0,67,0.00,,,0.00,Wunderground v.1.15,2013-03-14 04:38:00,
2013-03-14 00:44:00,61.6,50.1,30.17,NNW,338,11.0,15.0,66,0.00,,,0.00,Wunderground v.1.15,2013-03-14 04:44:00,
2013-03-14 00:50:00,61.6,50.1,30.17,NNW,333,11.0,11.0,66,0.00,,,0.00,Wunderground v.1.15,2013-03-14 04:50:00,
2013-03-14 00:56:00,61.6,49.7,30.17,NNW,335,10.0,13.0,65,0.00,,,0.00,Wunderground v.1.15,2013-03-14 04:56:00,
2013-03-14 01:02:00,61.5,50.0,30.17,NNW,327,9.0,9.0,66,0.00,,,0.00,Wunderground v.1.15,2013-03-14 05:02:00,
2013-03-14 01:08:00,61.3,49.4,30.17,North,11,8.0,9.0,65,0.00,,,0.00,Wunderground v.1.15,2013-03-14 05:08:00,
2013-03-14 01:14:00,61.4,49.1,30.16,NNW,331,8.0,12.0,64,0.00,,,0.00,Wunderground v.1.15,2013-03-14 05:14:00,
2013-03-14 01:20:00,61.4,49.5,30.17,North,355,8.0,10.0,65,0.00,,,0.00,Wunderground v.1.15,2013-03-14 05:20:00,
2013-03-14 01:26:00,61.4,49.5,30.17,NNW,338,8.0,10.0,65,0.00,,,0.00,Wunderground v.1.15,2013-03-14 05:26:00,
2013-03-14 01:32:00,61.3,49.8,30.16,NNW,335,8.0,9.0,66,0.00,,,0.00,Wunderground v.1.15,2013-03-14 05:32:00,
2013-03-14 01:38:00,61.4,49.9,30.16,NNW,336,9.0,10.0,66,0.00,,,0.00,Wunderground v.1.15,2013-03-14 05:38:00,
2013-03-14 01:44:00,61.4,50.3,30.16,NNW,338,9.0,11.0,67,0.00,,,0.00,Wunderground v.1.15,2013-03-14 05:44:00,
2013-03-14 01:50:00,61.3,49.8,30.16,NNW,343,9.0,13.0,66,0.00,,,0.00,Wunderground v.1.15,2013-03-14 05:50:00,
2013-03-14 01:56:00,61.3,49.8,30.16,NW,325,8.0,14.0,66,0.00,,,0.00,Wunderground v.1.15,2013-03-14 05:56:00,
2013-03-14 02:02:00,61.2,49.7,30.16,North,349,8.0,9.0,66,0.00,,,0.00,Wunderground v.1.15,2013-03-14 06:02:00,
2013-03-14 02:08:00,61.2,49.7,30.16,NNW,340,9.0,10.0,66,0.00,,,0.00,Wunderground v.1.15,2013-03-14 06:08:00,
2013-03-14 02:14:00,61.1,50.5,30.16,NNW,331,8.0,9.0,68,0.00,,,0.00,Wunderground v.1.15,2013-03-14 06:14:00,
2013-03-14 02:20:00,61.1,50.5,30.16,NNW,342,7.0,9.0,68,0.00,,,0.00,Wunderground v.1.15,2013-03-14 06:20:00,
2013-03-14 02:26:00,61.1,50.1,30.16,NNW,342,8.0,9.0,67,0.00,,,0.00,Wunderground v.1.15,2013-03-14 06:26:00,
2013-03-14 02:32:00,61.1,50.8,30.16,NNW,329,7.0,8.0,69,0.00,,,0.00,Wunderground v.1.15,2013-03-14 06:32:00,
2013-03-14 02:38:00,60.9,50.3,30.16,NNW,333,6.0,11.0,68,0.00,,,0.00,Wunderground v.1.15,2013-03-14 06:38:00,
2013-03-14 02:44:00,61.0,50.0,30.16,NNW,345,7.0,10.0,67,0.00,,,0.00,Wunderground v.1.15,2013-03-14 06:44:00,
2013-03-14 02:50:00,61.0,49.6,30.15,NNW,346,8.0,8.0,66,0.00,,,0.00,Wunderground v.1.15,2013-03-14 06:50:00,
2013-03-14 02:56:00,60.9,49.9,30.16,NNW,343,8.0,9.0,67,0.00,,,0.00,Wunderground v.1.15,2013-03-14 06:56:00,
2013-03-14 03:02:00,60.9,49.9,30.15,NNW,338,8.0,8.0,67,0.00,,,0.00,Wunderground v.1.15,2013-03-14 07:02:00,
2013-03-14 03:08:00,61.0,49.6,30.15,NNW,348,9.0,9.0,66,0.00,,,0.00,Wunderground v.1.15,2013-03-14 07:08:00,
2013-03-14 03:14:00,61.0,49.6,30.15,North,9,9.0,10.0,66,0.00,,,0.00,Wunderground v.1.15,2013-03-14 07:14:00,
2013-03-14 03:20:00,60.9,49.9,30.15,NNW,339,8.0,8.0,67,0.00,,,0.00,Wunderground v.1.15,2013-03-14 07:20:00,
2013-03-14 03:26:00,60.8,49.4,30.15,NNW,336,7.0,11.0,66,0.00,,,0.00,Wunderground v.1.15,2013-03-14 07:26:00,
2013-03-14 03:32:00,60.9,49.1,30.15,NNW,337,9.0,9.0,65,0.00,,,0.00,Wunderground v.1.15,2013-03-14 07:32:00,
2013-03-14 03:38:00,60.9,49.5,30.15,NNW,345,9.0,13.0,66,0.00,,,0.00,Wunderground v.1.15,2013-03-14 07:38:00,
2013-03-14 03:44:00,60.9,49.9,30.15,North,355,10.0,15.0,67,0.00,,,0.00,Wunderground v.1.15,2013-03-14 07:44:00,
2013-03-14 03:50:00,60.7,49.7,30.15,NNW,333,9.0,12.0,67,0.00,,,0.00,Wunderground v.1.15,2013-03-14 07:50:00,
2013-03-14 03:58:00,60.7,50.1,30.15,NNW,336,11.0,17.0,68,0.00,,,0.00,Wunderground v.1.15,2013-03-14 07:58:00,
2013-03-14 04:04:00,60.6,50.4,30.15,NNW,329,10.0,11.0,69,0.00,,,0.00,Wunderground v.1.15,2013-03-14 08:04:00,
2013-03-14 04:10:00,60.7,50.9,30.15,NNW,347,10.0,14.0,70,0.00,,,0.00,Wunderground v.1.15,2013-03-14 08:10:00,
2013-03-14 04:16:00,60.5,51.4,30.15,NNW,338,10.0,14.0,72,0.00,,,0.00,Wunderground v.1.15,2013-03-14 08:16:00,
2013-03-14 04:22:00,60.4,51.7,30.14,NNW,346,9.0,14.0,73,0.00,,,0.00,Wunderground v.1.15,2013-03-14 08:22:00,
2013-03-14 04:28:00,60.3,51.6,30.14,North,351,8.0,14.0,73,0.00,,,0.00,Wunderground v.1.15,2013-03-14 08:28:00,
2013-03-14 04:34:00,60.2,51.9,30.14,NNW,342,9.0,13.0,74,0.00,,,0.00,Wunderground v.1.15,2013-03-14 08:34:00,
2013-03-14 04:40:00,60.1,51.8,30.14,North,355,10.0,10.0,74,0.00,,,0.00,Wunderground v.1.15,2013-03-14 08:40:00,
2013-03-14 04:48:00,59.9,51.6,30.14,North,355,9.0,11.0,74,0.00,,,0.00,Wunderground v.1.15,2013-03-14 08:48:00,
2013-03-14 04:54:00,59.8,51.9,30.15,NNW,341,9.0,13.0,75,0.00,,,0.00,Wunderground v.1.15,2013-03-14 08:54:00,
2013-03-14 05:00:00,59.7,51.8,30.15,NNE,24,9.0,10.0,75,0.00,,,0.00,Wunderground v.1.15,2013-03-14 09:00:00,
2013-03-14 05:08:00,59.7,51.8,30.15,NNE,15,10.0,16.0,75,0.00,,,0.00,Wunderground v.1.15,2013-03-14 09:08:00,
2013-03-14 05:14:00,59.6,51.7,30.15,North,9,10.0,17.0,75,0.00,,,0.00,Wunderground v.1.15,2013-03-14 09:14:00,
2013-03-14 05:20:00,59.4,51.8,30.15,North,9,8.0,11.0,76,0.00,,,0.00,Wunderground v.1.15,2013-03-14 09:20:00,
2013-03-14 05:28:00,59.2,51.6,30.15,North,360,9.0,11.0,76,0.00,,,0.00,Wunderground v.1.15,2013-03-14 09:28:00,
2013-03-14 05:34:00,59.2,51.6,30.15,NNW,348,9.0,12.0,76,0.00,,,0.00,Wunderground v.1.15,2013-03-14 09:34:00,
2013-03-14 05:40:00,59.0,51.4,30.16,North,5,9.0,11.0,76,0.00,,,0.00,Wunderground v.1.15,2013-03-14 09:40:00,
2013-03-14 05:48:00,58.8,51.2,30.16,North,360,9.0,13.0,76,0.00,,,0.00,Wunderground v.1.15,2013-03-14 09:48:00,
2013-03-14 05:54:00,58.8,51.2,30.16,NNE,18,10.0,11.0,76,0.00,,,0.00,Wunderground v.1.15,2013-03-14 09:54:00,
2013-03-14 06:00:00,58.7,51.2,30.16,NNW,337,9.0,13.0,76,0.00,,,0.00,Wunderground v.1.15,2013-03-14 10:00:00,
2013-03-14 06:08:00,58.6,51.1,30.16,North,360,10.0,17.0,76,0.00,,,0.00,Wunderground v.1.15,2013-03-14 10:08:00,
2013-03-14 06:14:00,58.4,50.9,30.16,North,355,9.0,10.0,76,0.00,,,0.00,Wunderground v.1.15,2013-03-14 10:14:00,
2013-03-14 06:20:00,58.3,50.4,30.17,North,11,11.0,11.0,75,0.00,,,0.00,Wunderground v.1.15,2013-03-14 10:20:00,
2013-03-14 06:26:00,58.0,49.0,30.18,NNW,344,11.0,11.0,72,0.00,,,0.00,Wunderground v.1.15,2013-03-14 10:26:00,
2013-03-14 06:32:00,57.8,48.1,30.18,NNW,346,10.0,13.0,70,0.00,,,0.00,Wunderground v.1.15,2013-03-14 10:32:00,
2013-03-14 06:38:00,57.6,47.5,30.18,NNE,13,10.0,13.0,69,0.00,,,0.00,Wunderground v.1.15,2013-03-14 10:38:00,
2013-03-14 06:44:00,57.3,47.2,30.18,North,355,11.0,19.0,69,0.00,,,0.00,Wunderground v.1.15,2013-03-14 10:44:00,
2013-03-14 06:50:00,56.9,46.4,30.18,North,355,9.0,11.0,68,0.00,,,0.00,Wunderground v.1.15,2013-03-14 10:50:00,
2013-03-14 06:56:00,56.6,45.4,30.19,North,349,9.0,13.0,66,0.00,,,0.00,Wunderground v.1.15,2013-03-14 10:56:00,
2013-03-14 07:02:00,56.4,45.2,30.19,NNE,15,11.0,11.0,66,0.00,,,0.00,Wunderground v.1.15,2013-03-14 11:02:00,
2013-03-14 07:08:00,56.1,44.5,30.20,NNE,15,9.0,13.0,65,0.00,,,0.00,Wunderground v.1.15,2013-03-14 11:08:00,
2013-03-14 07:14:00,55.8,43.4,30.20,NNE,24,10.0,15.0,63,0.00,,,0.00,Wunderground v.1.15,2013-03-14 11:14:00,
2013-03-14 07:20:00,55.7,42.5,30.20,NNE,12,12.0,17.0,61,0.00,,,0.00,Wunderground v.1.15,2013-03-14 11:20:00,
2013-03-14 07:28:00,55.4,42.6,30.21,NNE,14,11.0,17.0,62,0.00,,,0.00,Wunderground v.1.15,2013-03-14 11:28:00,
2013-03-14 07:34:00,55.2,42.4,30.21,North,355,10.0,12.0,62,0.00,,,0.00,Wunderground v.1.15,2013-03-14 11:34:00,
2013-03-14 07:40:00,54.9,42.5,30.21,North,10,10.0,10.0,63,0.00,,,0.00,Wunderground v.1.15,2013-03-14 11:40:00,
2013-03-14 07:48:00,54.6,42.3,30.21,NNW,346,9.0,12.0,63,0.00,,,0.00,Wunderground v.1.15,2013-03-14 11:48:00,
2013-03-14 07:54:00,54.4,42.5,30.21,NNE,21,8.0,11.0,64,0.00,,,0.00,Wunderground v.1.15,2013-03-14 11:54:00,
2013-03-14 08:00:00,54.3,42.0,30.21,North,360,8.0,8.0,63,0.00,,,0.00,Wunderground v.1.15,2013-03-14 12:00:00,
2013-03-14 08:06:00,54.3,42.0,30.21,North,5,9.0,12.0,63,0.00,,,0.00,Wunderground v.1.15,2013-03-14 12:06:00,
2013-03-14 08:12:00,54.4,41.6,30.22,NNE,19,8.0,11.0,62,0.00,,,0.00,Wunderground v.1.15,2013-03-14 12:12:00,
2013-03-14 08:18:00,54.3,41.1,30.22,NNE,15,9.0,11.0,61,0.00,,,0.00,Wunderground v.1.15,2013-03-14 12:18:00,
2013-03-14 08:24:00,54.4,40.8,30.22,North,11,9.0,17.0,60,0.00,,,0.00,Wunderground v.1.15,2013-03-14 12:24:00,
2013-03-14 08:30:00,54.7,38.8,30.22,NNE,32,11.0,11.0,55,0.00,,,0.00,Wunderground v.1.15,2013-03-14 12:30:00,
2013-03-14 08:38:00,54.5,37.7,30.22,NNE,30,13.0,16.0,53,0.00,,,0.00,Wunderground v.1.15,2013-03-14 12:38:00,
2013-03-14 08:44:00,54.6,37.8,30.23,North,5,14.0,14.0,53,0.00,,,0.00,Wunderground v.1.15,2013-03-14 12:44:00,
2013-03-14 08:50:00,54.5,37.2,30.22,North,349,12.0,12.0,52,0.00,,,0.00,Wunderground v.1.15,2013-03-14 12:50:00,
2013-03-14 08:56:00,54.5,36.7,30.22,North,360,12.0,16.0,51,0.00,,,0.00,Wunderground v.1.15,2013-03-14 12:56:00,
2013-03-14 09:04:00,54.8,37.0,30.22,North,9,12.0,15.0,51,0.00,,,0.00,Wunderground v.1.15,2013-03-14 13:04:00,
2013-03-14 09:10:00,55.2,35.8,30.23,North,360,13.0,13.0,48,0.00,,,0.00,Wunderground v.1.15,2013-03-14 13:10:00,
2013-03-14 09:16:00,55.2,36.4,30.23,North,5,12.0,15.0,49,0.00,,,0.00,Wunderground v.1.15,2013-03-14 13:16:00,
2013-03-14 09:22:00,55.1,35.2,30.23,North,355,11.0,24.0,47,0.00,,,0.00,Wunderground v.1.15,2013-03-14 13:22:00,
2013-03-14 09:28:00,55.6,35.7,30.23,NNW,348,11.0,24.0,47,0.00,,,0.00,Wunderground v.1.15,2013-03-14 13:28:00,
2013-03-14 09:34:00,55.7,35.8,30.24,NNE,26,13.0,17.0,47,0.00,,,0.00,Wunderground v.1.15,2013-03-14 13:34:00,
2013-03-14 09:40:00,56.3,36.8,30.24,NNE,14,11.0,11.0,48,0.00,,,0.00,Wunderground v.1.15,2013-03-14 13:40:00,
2013-03-14 09:46:00,56.5,35.4,30.24,NNE,19,10.0,14.0,45,0.00,,,0.00,Wunderground v.1.15,2013-03-14 13:46:00,
2013-03-14 09:52:00,56.4,35.3,30.24,North,360,12.0,14.0,45,0.00,,,0.00,Wunderground v.1.15,2013-03-14 13:52:00,
2013-03-14 09:58:00,56.7,36.1,30.23,NNE,33,11.0,14.0,46,0.00,,,0.00,Wunderground v.1.15,2013-03-14 13:58:00,
2013-03-14 10:04:00,56.8,35.1,30.23,NNE,31,11.0,18.0,44,0.00,,,0.00,Wunderground v.1.15,2013-03-14 14:04:00,
2013-03-14 10:10:00,57.1,35.9,30.23,NNE,23,12.0,12.0,45,0.00,,,0.00,Wunderground v.1.15,2013-03-14 14:10:00,
2013-03-14 10:18:00,57.3,34.4,30.24,NNE,15,12.0,16.0,42,0.00,,,0.00,Wunderground v.1.15,2013-03-14 14:18:00,
2013-03-14 10:24:00,57.6,34.7,30.23,NNE,23,12.0,15.0,42,0.00,,,0.00,Wunderground v.1.15,2013-03-14 14:24:00,
2013-03-14 10:30:00,58.1,35.1,30.24,NNE,19,10.0,17.0,42,0.00,,,0.00,Wunderground v.1.15,2013-03-14 14:30:00,
2013-03-14 10:38:00,58.2,34.0,30.24,NE,36,11.0,17.0,40,0.00,,,0.00,Wunderground v.1.15,2013-03-14 14:38:00,
2013-03-14 10:44:00,58.3,34.7,30.24,NNE,26,12.0,16.0,41,0.00,,,0.00,Wunderground v.1.15,2013-03-14 14:44:00,
2013-03-14 10:50:00,58.9,33.3,30.24,NNE,17,11.0,11.0,38,0.00,,,0.00,Wunderground v.1.15,2013-03-14 14:50:00,
2013-03-14 10:58:00,59.5,35.1,30.24,NNE,29,11.0,12.0,40,0.00,,,0.00,Wunderground v.1.15,2013-03-14 14:58:00,
2013-03-14 11:04:00,60.1,34.4,30.24,NNW,343,9.0,15.0,38,0.00,,,0.00,Wunderground v.1.15,2013-03-14 15:04:00,
2013-03-14 11:10:00,60.3,33.9,30.24,NE,42,9.0,9.0,37,0.00,,,0.00,Wunderground v.1.15,2013-03-14 15:10:00,
2013-03-14 11:18:00,60.2,33.8,30.24,NE,35,9.0,14.0,37,0.00,,,0.00,Wunderground v.1.15,2013-03-14 15:18:00,
2013-03-14 11:24:00,59.8,35.4,30.24,NE,41,10.0,17.0,40,0.00,,,0.00,Wunderground v.1.15,2013-03-14 15:24:00,
2013-03-14 11:31:00,60.0,34.3,30.24,NNE,31,10.0,10.0,38,0.00,,,0.00,Wunderground v.1.15,2013-03-14 15:31:00,
2013-03-14 11:36:00,60.0,35.0,30.24,NNE,12,10.0,11.0,39,0.00,,,0.00,Wunderground v.1.15,2013-03-14 15:36:00,
2013-03-14 11:42:00,60.8,35.0,30.24,NNE,12,9.0,9.0,38,0.00,,,0.00,Wunderground v.1.15,2013-03-14 15:42:00,
2013-03-14 11:48:00,61.1,35.3,30.24,North,10,9.0,9.0,38,0.00,,,0.00,Wunderground v.1.15,2013-03-14 15:48:00,
2013-03-14 11:54:00,61.5,35.6,30.24,NNE,17,9.0,9.0,38,0.00,,,0.00,Wunderground v.1.15,2013-03-14 15:54:00,
2013-03-14 12:10:00,61.9,34.6,30.24,NE,46,9.0,11.0,36,0.00,,,0.00,Wunderground v.1.15,2013-03-14 16:10:00,
2013-03-14 12:16:00,61.8,35.2,30.24,North,360,9.0,11.0,37,0.00,,,0.00,Wunderground v.1.15,2013-03-14 16:16:00,
2013-03-14 12:22:00,62.4,35.1,30.24,NNE,14,9.0,9.0,36,0.00,,,0.00,Wunderground v.1.15,2013-03-14 16:22:00,
2013-03-14 12:28:00,62.7,35.3,30.23,NNE,19,8.0,9.0,36,0.00,,,0.00,Wunderground v.1.15,2013-03-14 16:28:00,
2013-03-14 12:34:00,63.5,35.3,30.23,NNE,21,7.0,9.0,35,0.00,,,0.00,Wunderground v.1.15,2013-03-14 16:34:00,
2013-03-14 12:40:00,63.7,34.0,30.23,North,360,7.0,7.0,33,0.00,,,0.00,Wunderground v.1.15,2013-03-14 16:40:00,
2013-03-14 12:46:00,63.6,36.8,30.23,NNE,24,6.0,10.0,37,0.00,,,0.00,Wunderground v.1.15,2013-03-14 16:46:00,
2013-03-14 12:52:00,63.5,36.7,30.23,North,360,7.0,7.0,37,0.00,,,0.00,Wunderground v.1.15,2013-03-14 16:52:00,
2013-03-14 12:58:00,63.5,36.7,30.23,NNW,344,7.0,15.0,37,0.00,,,0.00,Wunderground v.1.15,2013-03-14 16:58:00,
2013-03-14 13:04:00,63.6,36.1,30.23,NNW,339,8.0,10.0,36,0.00,,,0.00,Wunderground v.1.15,2013-03-14 17:04:00,
2013-03-14 13:10:00,63.5,37.4,30.23,NNW,339,8.0,8.0,38,0.00,,,0.00,Wunderground v.1.15,2013-03-14 17:10:00,
2013-03-14 13:16:00,63.8,37.0,30.22,NNW,330,7.0,12.0,37,0.00,,,0.00,Wunderground v.1.15,2013-03-14 17:16:00,
2013-03-14 13:22:00,63.8,37.0,30.22,NW,311,7.0,7.0,37,0.00,,,0.00,Wunderground v.1.15,2013-03-14 17:22:00,
2013-03-14 13:28:00,64.0,37.2,30.21,NNW,342,7.0,10.0,37,0.00,,,0.00,Wunderground v.1.15,2013-03-14 17:28:00,
2013-03-14 13:34:00,64.0,36.5,30.21,NNW,332,7.0,8.0,36,0.00,,,0.00,Wunderground v.1.15,2013-03-14 17:34:00,
2013-03-14 13:40:00,64.4,36.8,30.21,North,355,6.0,6.0,36,0.00,,,0.00,Wunderground v.1.15,2013-03-14 17:40:00,
2013-03-14 13:46:00,64.2,36.0,30.20,NNW,342,7.0,8.0,35,0.00,,,0.00,Wunderground v.1.15,2013-03-14 17:46:00,
2013-03-14 13:52:00,64.9,36.6,30.20,NNW,331,6.0,7.0,35,0.00,,,0.00,Wunderground v.1.15,2013-03-14 17:52:00,
2013-03-14 13:58:00,64.5,36.2,30.19,NNW,329,6.0,10.0,35,0.00,,,0.00,Wunderground v.1.15,2013-03-14 17:58:00,
2013-03-14 14:04:00,65.2,35.4,30.20,NNW,333,6.0,8.0,33,0.00,,,0.00,Wunderground v.1.15,2013-03-14 18:04:00,
2013-03-14 14:10:00,65.4,35.5,30.19,NNW,347,5.0,7.0,33,0.00,,,0.00,Wunderground v.1.15,2013-03-14 18:10:00,
2013-03-14 14:16:00,65.6,36.5,30.19,NNW,338,6.0,7.0,34,0.00,,,0.00,Wunderground v.1.15,2013-03-14 18:16:00,
2013-03-14 14:22:00,65.7,36.5,30.19,NNW,340,7.0,9.0,34,0.00,,,0.00,Wunderground v.1.15,2013-03-14 18:22:00,
2013-03-14 14:28:00,65.6,34.9,30.19,NNE,17,7.0,9.0,32,0.00,,,0.00,Wunderground v.1.15,2013-03-14 18:28:00,
2013-03-14 14:36:00,65.6,36.5,30.18,NNW,338,8.0,10.0,34,0.00,,,0.00,Wunderground v.1.15,2013-03-14 18:36:00,
2013-03-14 14:42:00,65.5,35.6,30.18,NW,320,9.0,9.0,33,0.00,,,0.00,Wunderground v.1.15,2013-03-14 18:42:00,
2013-03-14 14:48:00,66.2,36.2,30.18,NNW,340,8.0,11.0,33,0.00,,,0.00,Wunderground v.1.15,2013-03-14 18:48:00,
2013-03-14 14:54:00,66.7,36.7,30.18,North,5,8.0,8.0,33,0.00,,,0.00,Wunderground v.1.15,2013-03-14 18:54:00,
2013-03-14 15:00:00,66.8,37.5,30.17,NW,326,8.0,9.0,34,0.00,,,0.00,Wunderground v.1.15,2013-03-14 19:00:00,
2013-03-14 15:06:00,66.8,38.3,30.17,NW,321,8.0,13.0,35,0.00,,,0.00,Wunderground v.1.15,2013-03-14 19:06:00,
2013-03-14 15:12:00,67.0,37.7,30.17,WNW,295,7.0,8.0,34,0.00,,,0.00,Wunderground v.1.15,2013-03-14 19:12:00,
2013-03-14 15:18:00,67.6,39.0,30.17,West,268,5.0,9.0,35,0.00,,,0.00,Wunderground v.1.15,2013-03-14 19:18:00,
2013-03-14 15:24:00,66.8,39.0,30.17,NW,322,7.0,10.0,36,0.00,,,0.00,Wunderground v.1.15,2013-03-14 19:24:00,
2013-03-14 15:30:00,66.7,39.6,30.17,NNW,333,7.0,12.0,37,0.00,,,0.00,Wunderground v.1.15,2013-03-14 19:30:00,
2013-03-14 15:38:00,66.1,41.1,30.16,NW,316,8.0,12.0,40,0.00,,,0.00,Wunderground v.1.15,2013-03-14 19:38:00,
2013-03-14 15:44:00,65.3,41.6,30.16,West,279,9.0,9.0,42,0.00,,,0.00,Wunderground v.1.15,2013-03-14 19:44:00,
2013-03-14 15:50:00,65.3,44.0,30.16,NW,320,8.0,8.0,46,0.00,,,0.00,Wunderground v.1.15,2013-03-14 19:50:00,
2013-03-14 15:56:00,65.4,44.1,30.16,NW,319,7.0,8.0,46,0.00,,,0.00,Wunderground v.1.15,2013-03-14 19:56:00,
2013-03-14 16:02:00,64.6,43.9,30.16,West,275,7.0,8.0,47,0.00,,,0.00,Wunderground v.1.15,2013-03-14 20:02:00,
2013-03-14 16:08:00,64.6,43.9,30.16,WNW,290,8.0,13.0,47,0.00,,,0.00,Wunderground v.1.15,2013-03-14 20:08:00,
2013-03-14 16:14:00,65.0,44.3,30.16,WNW,300,7.0,9.0,47,0.00,,,0.00,Wunderground v.1.15,2013-03-14 20:14:00,
2013-03-14 16:20:00,64.8,44.6,30.16,NW,308,8.0,15.0,48,0.00,,,0.00,Wunderground v.1.15,2013-03-14 20:20:00,
2013-03-14 16:26:00,64.4,44.8,30.15,West,277,9.0,15.0,49,0.00,,,0.00,Wunderground v.1.15,2013-03-14 20:26:00,
2013-03-14 16:32:00,64.6,45.0,30.15,WNW,293,8.0,9.0,49,0.00,,,0.00,Wunderground v.1.15,2013-03-14 20:32:00,
2013-03-14 16:38:00,64.7,45.1,30.15,NW,313,8.0,9.0,49,0.00,,,0.00,Wunderground v.1.15,2013-03-14 20:38:00,
2013-03-14 16:44:00,64.2,45.7,30.15,West,271,8.0,11.0,51,0.00,,,0.00,Wunderground v.1.15,2013-03-14 20:44:00,
2013-03-14 16:50:00,64.3,45.8,30.15,NNW,340,8.0,11.0,51,0.00,,,0.00,Wunderground v.1.15,2013-03-14 20:50:00,
2013-03-14 16:56:00,64.1,46.1,30.15,NNW,343,8.0,11.0,52,0.00,,,0.00,Wunderground v.1.15,2013-03-14 20:56:00,
2013-03-14 17:02:00,64.0,46.5,30.15,WNW,298,9.0,9.0,53,0.00,,,0.00,Wunderground v.1.15,2013-03-14 21:02:00,
2013-03-14 17:08:00,64.1,46.6,30.15,NW,309,8.0,11.0,53,0.00,,,0.00,Wunderground v.1.15,2013-03-14 21:08:00,
2013-03-14 17:14:00,63.9,46.4,30.16,WNW,301,8.0,10.0,53,0.00,,,0.00,Wunderground v.1.15,2013-03-14 21:14:00,
2013-03-14 17:20:00,63.4,47.4,30.16,WNW,282,9.0,9.0,56,0.00,,,0.00,Wunderground v.1.15,2013-03-14 21:20:00,
2013-03-14 17:26:00,63.5,48.0,30.16,NW,312,8.0,9.0,57,0.00,,,0.00,Wunderground v.1.15,2013-03-14 21:26:00,
2013-03-14 17:32:00,63.4,48.8,30.16,NW,323,7.0,9.0,59,0.00,,,0.00,Wunderground v.1.15,2013-03-14 21:32:00,
2013-03-14 17:38:00,63.0,48.9,30.16,NW,323,7.0,9.0,60,0.00,,,0.00,Wunderground v.1.15,2013-03-14 21:38:00,
2013-03-14 17:44:00,62.9,48.8,30.15,WNW,302,8.0,9.0,60,0.00,,,0.00,Wunderground v.1.15,2013-03-14 21:44:00,
2013-03-14 17:50:00,62.6,48.5,30.16,NNW,344,9.0,12.0,60,0.00,,,0.00,Wunderground v.1.15,2013-03-14 21:50:00,
2013-03-14 17:56:00,62.5,48.9,30.15,North,355,9.0,11.0,61,0.00,,,0.00,Wunderground v.1.15,2013-03-14 21:56:00,
2013-03-14 18:02:00,62.5,49.3,30.15,NNW,328,8.0,9.0,62,0.00,,,0.00,Wunderground v.1.15,2013-03-14 22:02:00,
2013-03-14 18:08:00,62.4,48.8,30.15,NNW,331,8.0,13.0,61,0.00,,,0.00,Wunderground v.1.15,2013-03-14 22:08:00,
2013-03-14 18:14:00,62.5,49.3,30.15,NW,323,7.0,7.0,62,0.00,,,0.00,Wunderground v.1.15,2013-03-14 22:14:00,
2013-03-14 18:20:00,62.6,49.8,30.15,NW,323,7.0,7.0,63,0.00,,,0.00,Wunderground v.1.15,2013-03-14 22:20:00,
2013-03-14 18:26:00,62.5,49.7,30.15,NW,309,7.0,10.0,63,0.00,,,0.00,Wunderground v.1.15,2013-03-14 22:26:00,
2013-03-14 18:32:00,62.6,50.2,30.16,WNW,296,6.0,7.0,64,0.00,,,0.00,Wunderground v.1.15,2013-03-14 22:32:00,
2013-03-14 18:38:00,62.5,50.2,30.16,NNW,344,7.0,12.0,64,0.00,,,0.00,Wunderground v.1.15,2013-03-14 22:38:00,
2013-03-14 18:44:00,62.5,50.6,30.16,North,350,7.0,7.0,65,0.00,,,0.00,Wunderground v.1.15,2013-03-14 22:44:00,
2013-03-14 18:50:00,62.3,50.8,30.16,WNW,302,6.0,7.0,66,0.00,,,0.00,Wunderground v.1.15,2013-03-14 22:50:00,
2013-03-14 18:56:00,62.4,50.5,30.16,NW,325,6.0,7.0,65,0.00,,,0.00,Wunderground v.1.15,2013-03-14 22:56:00,
2013-03-14 19:02:00,62.3,50.4,30.16,NW,325,6.0,6.0,65,0.00,,,0.00,Wunderground v.1.15,2013-03-14 23:02:00,
2013-03-14 19:08:00,62.2,50.7,30.17,WNW,284,5.0,10.0,66,0.00,,,0.00,Wunderground v.1.15,2013-03-14 23:08:00,
2013-03-14 19:14:00,61.9,50.8,30.16,NNW,329,6.0,10.0,67,0.00,,,0.00,Wunderground v.1.15,2013-03-14 23:14:00,
2013-03-14 19:20:00,61.6,51.3,30.17,NW,311,6.0,8.0,69,0.00,,,0.00,Wunderground v.1.15,2013-03-14 23:20:00,
2013-03-14 19:28:00,61.2,50.9,30.17,NW,309,5.0,8.0,69,0.00,,,0.00,Wunderground v.1.15,2013-03-14 23:28:00,
2013-03-14 19:34:00,61.0,51.1,30.17,NNW,328,6.0,9.0,70,0.00,,,0.00,Wunderground v.1.15,2013-03-14 23:34:00,
2013-03-14 19:40:00,60.7,50.5,30.17,NW,318,7.0,7.0,69,0.00,,,0.00,Wunderground v.1.15,2013-03-14 23:40:00,
2013-03-14 19:46:00,60.7,51.2,30.17,NW,319,5.0,7.0,71,0.00,,,0.00,Wunderground v.1.15,2013-03-14 23:46:00,
2013-03-14 19:52:00,60.6,51.5,30.16,NNW,328,5.0,5.0,72,0.00,,,0.00,Wunderground v.1.15,2013-03-14 23:52:00,
2013-03-14 19:58:00,60.5,51.8,30.17,NNW,331,5.0,7.0,73,0.00,,,0.00,Wunderground v.1.15,2013-03-14 23:58:00,
2013-03-14 20:04:00,60.3,51.2,30.17,NNW,331,6.0,6.0,72,0.00,,,0.00,Wunderground v.1.15,2013-03-15 00:04:00,
2013-03-14 20:10:00,60.3,51.6,30.17,NW,321,5.0,6.0,73,0.00,,,0.00,Wunderground v.1.15,2013-03-15 00:10:00,
2013-03-14 20:16:00,60.3,51.6,30.17,NNW,331,5.0,6.0,73,0.00,,,0.00,Wunderground v.1.15,2013-03-15 00:16:00,
2013-03-14 20:22:00,60.2,51.5,30.17,NNW,330,6.0,8.0,73,0.00,,,0.00,Wunderground v.1.15,2013-03-15 00:22:00,
2013-03-14 20:28:00,60.1,51.4,30.17,NNW,334,7.0,11.0,73,0.00,,,0.00,Wunderground v.1.15,2013-03-15 00:28:00,
2013-03-14 20:34:00,60.3,51.2,30.17,NW,320,8.0,10.0,72,0.00,,,0.00,Wunderground v.1.15,2013-03-15 00:34:00,
2013-03-14 20:40:00,60.2,51.5,30.17,NW,324,7.0,7.0,73,0.00,,,0.00,Wunderground v.1.15,2013-03-15 00:40:00,
2013-03-14 20:48:00,60.1,51.4,30.17,NW,322,6.0,8.0,73,0.00,,,0.00,Wunderground v.1.15,2013-03-15 00:48:00,
2013-03-14 20:54:00,60.0,51.3,30.18,NNW,327,6.0,7.0,73,0.00,,,0.00,Wunderground v.1.15,2013-03-15 00:54:00,
2013-03-14 21:00:00,60.0,51.7,30.18,NNW,333,7.0,7.0,74,0.00,,,0.00,Wunderground v.1.15,2013-03-15 01:00:00,
2013-03-14 21:08:00,60.0,51.7,30.18,NNW,333,6.0,7.0,74,0.00,,,0.00,Wunderground v.1.15,2013-03-15 01:08:00,
2013-03-14 21:14:00,60.0,51.7,30.18,NNW,343,5.0,7.0,74,0.00,,,0.00,Wunderground v.1.15,2013-03-15 01:14:00,
2013-03-14 21:20:00,60.0,52.1,30.18,NW,324,5.0,5.0,75,0.00,,,0.00,Wunderground v.1.15,2013-03-15 01:20:00,
2013-03-14 21:26:00,60.0,51.7,30.19,NW,323,6.0,10.0,74,0.00,,,0.00,Wunderground v.1.15,2013-03-15 01:26:00,
2013-03-14 21:32:00,60.0,51.7,30.19,NW,323,7.0,7.0,74,0.00,,,0.00,Wunderground v.1.15,2013-03-15 01:32:00,
2013-03-14 21:38:00,60.0,51.7,30.19,NW,325,6.0,7.0,74,0.00,,,0.00,Wunderground v.1.15,2013-03-15 01:38:00,
2013-03-14 21:44:00,59.8,51.9,30.19,NW,324,5.0,7.0,75,0.00,,,0.00,Wunderground v.1.15,2013-03-15 01:44:00,
2013-03-14 21:50:00,59.8,51.9,30.19,NW,319,6.0,6.0,75,0.00,,,0.00,Wunderground v.1.15,2013-03-15 01:50:00,
2013-03-14 21:56:00,59.8,51.9,30.20,NNW,337,7.0,7.0,75,0.00,,,0.00,Wunderground v.1.15,2013-03-15 01:56:00,
2013-03-14 22:02:00,59.8,51.9,30.20,NNW,340,6.0,8.0,75,0.00,,,0.00,Wunderground v.1.15,2013-03-15 02:02:00,
2013-03-14 22:08:00,59.8,51.9,30.20,NW,325,5.0,9.0,75,0.00,,,0.00,Wunderground v.1.15,2013-03-15 02:08:00,
2013-03-14 22:14:00,59.9,52.0,30.20,NNW,328,5.0,9.0,75,0.00,,,0.00,Wunderground v.1.15,2013-03-15 02:14:00,
2013-03-14 22:20:00,59.8,51.9,30.20,NNW,332,5.0,8.0,75,0.00,,,0.00,Wunderground v.1.15,2013-03-15 02:20:00,
2013-03-14 22:28:00,59.7,51.4,30.20,NNW,340,5.0,8.0,74,0.00,,,0.00,Wunderground v.1.15,2013-03-15 02:28:00,
2013-03-14 22:34:00,59.7,51.0,30.21,NNW,346,5.0,5.0,73,0.00,,,0.00,Wunderground v.1.15,2013-03-15 02:34:00,
2013-03-14 22:40:00,59.4,49.6,30.21,NNW,338,6.0,6.0,70,0.00,,,0.00,Wunderground v.1.15,2013-03-15 02:40:00,
2013-03-14 22:48:00,59.1,49.3,30.21,NNW,338,6.0,7.0,70,0.00,,,0.00,Wunderground v.1.15,2013-03-15 02:48:00,
2013-03-14 22:54:00,58.9,49.1,30.22,NNW,344,6.0,8.0,70,0.00,,,0.00,Wunderground v.1.15,2013-03-15 02:54:00,
2013-03-14 23:00:00,58.7,48.9,30.22,North,351,7.0,11.0,70,0.00,,,0.00,Wunderground v.1.15,2013-03-15 03:00:00,
2013-03-14 23:06:00,58.5,48.7,30.22,NNW,346,8.0,11.0,70,0.00,,,0.00,Wunderground v.1.15,2013-03-15 03:06:00,
2013-03-14 23:12:00,58.3,48.9,30.23,North,9,6.0,8.0,71,0.00,,,0.00,Wunderground v.1.15,2013-03-15 03:12:00,
2013-03-14 23:18:00,58.0,49.0,30.23,North,350,6.0,8.0,72,0.00,,,0.00,Wunderground v.1.15,2013-03-15 03:18:00,
2013-03-14 23:24:00,57.7,49.1,30.23,North,355,5.0,8.0,73,0.00,,,0.00,Wunderground v.1.15,2013-03-15 03:24:00,
2013-03-14 23:30:00,57.3,48.7,30.23,North,355,6.0,6.0,73,0.00,,,0.00,Wunderground v.1.15,2013-03-15 03:30:00,
2013-03-14 23:38:00,56.9,48.7,30.23,North,355,5.0,6.0,74,0.00,,,0.00,Wunderground v.1.15,2013-03-15 03:38:00,
2013-03-14 23:44:00,56.6,48.8,30.23,North,350,5.0,6.0,75,0.00,,,0.00,Wunderground v.1.15,2013-03-15 03:44:00,
2013-03-14 23:50:00,56.4,48.9,30.24,North,360,5.0,5.0,76,0.00,,,0.00,Wunderground v.1.15,2013-03-15 03:50:00,
2013-03-14 23:58:00,56.2,48.7,30.24,North,5,5.0,9.0,76,0.00,,,0.00,Wunderground v.1.15,2013-03-15 03:58:00,